Regional Weather Roundup
Issued by NWS

Home | Current Version | Previous Version | Text Only | Print | Product List | Glossary On
Versions: 1 2 3 4 5 6 7 8 9 10 11 12 13 14 15 16 17 18 19 20 21 22 23 24 25 26 27 28 29 30 31 32 33 34 35 36 37 38 39 40 41 42 43 44 45 46 47 48 49 50
000
ASUS43 KTOP 212259
RWRKS

WEATHER ROUNDUP FOR KANSAS
NATIONAL WEATHER SERVICE GOODLAND KS
500 PM CST WED FEB 21 2018

NOTE:  "FAIR" INDICATES FEW OR NO CLOUDS BELOW 12,000 FEET WITH NO
SIGNIFICANT WEATHER AND/OR OBSTRUCTIONS TO VISIBILITY.

KSZ001>006-013>018-027>032-041>047-220000-
NORTHWEST KANSAS

CITY           SKY/WX    TMP DP  RH WIND       PRES   REMARKS
GOODLAND       CLOUDY    27   3  35 SE13      30.27R WCI  16
HAYS           CLOUDY    26   2  35 NE8       30.43S
HILL CITY      CLOUDY    27  -1  30 SE8       30.43R
RUSSELL        CLOUDY    29   2  31 NE12      30.42F WCI  19
$$

KSZ061>065-074>080-084>089-220000-
SOUTHWEST KANSAS

CITY           SKY/WX    TMP DP  RH WIND       PRES   REMARKS
DODGE CITY     CLOUDY    27   0  31 NE14      30.35F WCI  16
GARDEN CITY    CLOUDY    24  -1  33 E8        30.34S
GREAT BEND     CLOUDY    27   5  39 NE14      30.41F WCI  16
LIBERAL        CLOUDY    27   8  44 NE7       30.32
$$

KSZ066>073-081>083-090>101-220000-
SOUTHEAST KANSAS

CITY           SKY/WX    TMP DP  RH WIND       PRES   REMARKS
CHANUTE        CLOUDY    28  24  85 NE15      30.44F WCI  16
COFFEYVILLE    CLOUDY    28  25  88 NE16      30.44F WCI  16
HUTCHINSON     CLOUDY    26  13  57 N13G20    30.42S WCI  15
MEDICINE LODGE   N/A     26   9  48 NE14      30.41S WCI  14
NEWTON         CLOUDY    24  17  74 NE15G21   30.41F WCI  11
PARSONS        CLOUDY    27  26  96 E8        30.44F
WICHITA INTL   CLOUDY    27  19  72 NE16      30.42R WCI  15
WICHITA JABRA  CLOUDY    25  19  78 NE15      30.41S WCI  13
WICHITA MCCONL CLOUDY    26  19  74 NE15      30.41R WCI  13
WINFIELD       CLOUDY    27  25  92 NE10      30.43R WCI  17
$$

KSZ007>012-019>026-033>040-048>060-102>105-220000-
NORTHEAST KANSAS

CITY           SKY/WX    TMP DP  RH WIND       PRES   REMARKS
CONCORDIA      CLOUDY    27   8  44 E10       30.48S WCI  17
EMPORIA        PTSUNNY   24  18  77 NE16      30.45F WCI  11
LAWRENCE       CLOUDY    27  22  81 NE8       30.53R
MANHATTAN      CLOUDY    29  16  58 NE10      30.50S WCI  20
OLATHE IND     PTSUNNY   27  22  81 NE13      30.51R WCI  16
OLATHE EXE     PTSUNNY   26  21  81 NE10      30.50R WCI  16
SALINA         CLOUDY    29  11  47 NE9       30.47F
TOPEKA BILLARD CLOUDY    28  21  75 NE12      30.52R WCI  18
TOPEKA FORBES  CLOUDY    27  20  75 NE7       30.49S
$$




USA.gov is the U.S. government's official web portal to all federal, state and local government web resources and services.